Back to catalog

MT-CUBE-2

LostScienceMEO
NORAD 53106·PAYLOAD·🇫🇷 France

Launched Jul 13, 2022 from Guiana Space Centre

Loading…

Next Passes (next 24 hours)

TLE

StaleSource: Space-Track

Epoch: Jun 16, 2025, 07:51 UTC

1 53106U 22080B   25167.32760529 -.00000003  00000-0  00000-0 0  9996
2 53106  70.1560  65.9804 0008358  24.6429 335.4629  6.42557409 68669

Track MT-CUBE-2 in real time with AllMySat

Download on the App Store